Regional Weather Roundup
Issued by NWS Upton, NY

Home | Current Version | Previous Version | Text Only | Print | Product List | Glossary On
Versions: 1 2 3 4 5 6 7 8 9 10 11 12 13 14 15 16 17 18 19 20 21 22 23 24 25 26 27
000
ASUS41 KOKX 220509
RWROKX

REGIONAL WEATHER ROUNDUP
NATIONAL WEATHER SERVICE NEW YORK NY
100 AM EDT FRI SEP 22 2017

NOTE: "FAIR" INDICATES FEW OR NO CLOUDS BELOW 12,000 FEET WITH NO
SIGNIFICANT WEATHER AND/OR OBSTRUCTIONS TO VISIBILITY.

NYZ071-072-176-178-NJZ106-104-220600-
NEW YORK CITY METRO AREA

CITY           SKY/WX    TMP DP  RH WIND       PRES   REMARKS
Central Park   CLOUDY    73  59  61 VRB7      30.04S
Bronx Bot Gard   N/A     70  55  60 NW3       30.01F
LaGuardia APRT CLOUDY    72  57  59 N12       30.00S
Kennedy INTL   CLOUDY    72  52  49 N14G21    30.01S
Breezy Point     N/A     72 N/A N/A N9G16       N/A
Newark/Liberty CLOUDY    72  62  71 N10       30.01S
Teterboro      CLOUDY    70  62  76 N5        30.00F
$$

NYZ177-179-078>081-220600-
LONG ISLAND NEW YORK

CITY           SKY/WX    TMP DP  RH WIND       PRES   REMARKS
Jones Beach      N/A     70 N/A N/A N14         N/A
Matinecock PT    N/A     70 N/A N/A NE16        N/A
Farmingdale    CLOUDY    69  51  52 N13G23    30.00S
MacArthur/ISP  CLOUDY    69  51  52 N16G28    29.98S
Shirley        CLOUDY    71  51  49 N14G24    29.97F
Mt Sinai Harb    N/A    N/A N/A N/A N21G26      N/A
Westhampton    CLOUDY    69  49  48 N16G26    29.97S
East Hampton   LGT RAIN  66  52  60 N15G24    29.94F
Montauk          N/A     67  56  67 N16G26    29.94F
$$

NYZ052-065-067-220600-
HUDSON VALLEY

CITY           SKY/WX    TMP DP  RH WIND       PRES   REMARKS
White Plains   CLOUDY    67  53  61 N7        30.02F
Larchmont Harb   N/A     70 N/A N/A N10         N/A
Croton On Huds   N/A     68 N/A N/A NW1         N/A
Newburgh       MOCLDY    66  63  88 N12       30.07S
Montgomery     CLOUDY    63  60  90 CALM      30.05S
Poughkeepsie   CLOUDY    63  59  87 NE3       30.04S
Albany         CLOUDY    63  57  81 N6        30.09F
$$

NJZ001-105-106-008-010-013-015-019>022-104-220600-
NEW JERSEY

CITY           SKY/WX    TMP DP  RH WIND       PRES   REMARKS
Newark/Liberty CLOUDY    72  62  71 N10       30.01S
Teterboro      CLOUDY    70  62  76 N5        30.00F
Caldwell       CLOUDY    69  63  81 CALM      30.03F
Somerville     NOT AVBL
Linden         FAIR      71  60  67 CALM      30.01S
Perth Amboy      N/A     72 N/A N/A N6          N/A
Sussex         MOCLDY    60  60 100 CALM      30.06S
Andover          N/A     61  61 100 CALM      30.06F
Trenton        MOCLDY    69  62  78 N7        30.02S
Millville      CLOUDY    69  68  96 W3        30.02S
Atlantic City  CLOUDY    69  66  90 NW7       30.01S
Wrightstown    PTCLDY    67  62  83 NW8       29.99S
Toms River     CLOUDY    67  62  84 NW5       30.01S
Belmar         CLOUDY    66  62  87 NW6       30.02S
$$

PAZ047>061-062-071-220600-
EASTERN PENNSYLVANIA

CITY           SKY/WX    TMP DP  RH WIND       PRES   REMARKS
Philadelphia   CLOUDY    74  61  63 N7        30.03S
Allentown      MOCLDY    67  62  84 NW3       30.05F
Scranton       CLOUDY    63  61  93 SE5       30.09F
$$

CTZ002-004>006-009-010-012-RIZ004-006-007-MAZ004-011-015-220600-
SOUTHERN NEW ENGLAND
 IN CT

CITY           SKY/WX    TMP DP  RH WIND       PRES   REMARKS
Bradley INTL   CLOUDY    66  48  52 N8        30.04S
Hartford       CLOUDY    68  50  52 N10       30.02S
Danbury        MOCLDY    68  48  48 N12G18    30.05S
Wtrbury/Oxford CLOUDY    64  49  57 N13       30.04S
Norwalk Harbor   N/A     68 N/A N/A N13G18      N/A
Bridgeport     CLOUDY    70  49  47 NE17      30.00F
Meriden        CLOUDY    67  48  50 N12G18    30.01S
New Haven      CLOUDY    68  49  50 N14       30.00S
Chester        MOCLDY    68  48  49 N12G20    29.99F
Groton         CLOUDY    67  50  54 N24G32    29.94F
Wilimantic     CLOUDY    68  49  50 NE18G30   30.01S

 IN RI

CITY           SKY/WX    TMP DP  RH WIND       PRES   REMARKS
Providence     CLOUDY    66  56  70 N26G40    29.98S
Block Island   CLOUDY    65  56  72 N26G40    29.91S
Westerly       CLOUDY    68  53  58 N22G32    29.94F
 IN MA

CITY           SKY/WX    TMP DP  RH WIND       PRES   REMARKS
Boston         CLOUDY    63  54  72 NE29G35   30.04R
Worcester      CLOUDY    62  46  55 NE15G23   30.05S
Westfield      CLOUDY    63  51  65 N9        30.06S
Provincetown   CLOUDY    60  56  86 NE24G40   29.93S
Nantucket      LGT RAIN  61  61 100 N36G45    29.78S FOG
$$

ANZ330-335-338-340-345-350-353-355-220600-
COASTAL MARINE OBSERVATIONS


STATION/POSITION TIME  SKY/WX   TEMP    WIND        PRES    VSBY  WAVE
                                AIR SEA DIR/SP/G                  HT/PER
                 (UTC)          (F)     (DEG/KT/KT) (MB)    (MI)  (FT/S)
NY HARB ENTRANCE 0350            72 70  360/ 10/ 14 1014.9          5/11
20 S FIRE ISLAND 0350            70 67   10/ 17/ 21 1014.4          8/10
GREAT SOUTH BAY  0430            71 70   10/ 16/ 23   N/A
23 SSW MONTAUK P 0350            67 65              1013.1          9/10
15 E BARNEGAT LI 0430               69                N/A           6/10
HUDSON CANYON    0350            69 69  350/ 25/ 35 1011.9         11/ 9
KINGS POINT      0424            71 71   50/  9/ 14 1016.9
EXECUTION ROCKS  0445            71      40/ 14/ 19   N/A
WESTERN LI SOUND NOT AVBL
CENTRAL LI SOUND 0430            70      20/ 17/ 21   N/A           2
EASTERN LI SOUND NOT AVBL
ROBBINS REEF     0424            73     350/ 10/ 11 1016.9
$$


>>>>>>>>>>>>>>>>>>>>>>>>>>>> KEY <<<<<<<<<<<<<<<<<<<<<<<<<<<
>                                                          <
>     SKY/WX - Sky Condition/Present Weather               <
>     TMP    - Temperature in Fahrenheit                   <
>     DP     - Dew Point in Fahrenheit                     <
>     RH     - Relative Humidity in Percent                <
>     WIND   - Direction (from) and Speed in MPH           <
>     PRES   - Mean Sea Level Pressure (inches of Hg)      <
>     WCI    - Wind Chill Index                            <
>     VSB    - VISIBILITY IN MILES                         <
>     HX     - HEAT INDEX                                  <
>     TC     - TEMPERATURE IN CELSIUS                      <
>     VRB    - VARIABLE WIND DIRECTION                     <
>                                                          <
>>>>>>>>>>>>>>>>>>>>>>>>>>>> KEY <<<<<<<<<<<<<<<<<<<<<<<<<<<




USA.gov is the U.S. government's official web portal to all federal, state and local government web resources and services.